{"data":{"norad_id":65143,"epoch":"2026-05-24T12:07:33.904128Z","epoch_age_seconds":128095,"freshness":"FRESH","line1":"1 65143U 25171M   26144.50525352  .00019465  00000+0  25682-2 0  9998","line2":"2 65143  51.9012 190.3971 0000406  56.8270 303.2731 14.80042817 44010","mean_motion":14.80042817,"eccentricity":4.06e-5,"inclination_deg":51.9012,"raan_deg":190.3971,"arg_perigee_deg":56.827,"mean_anomaly_deg":303.2731,"bstar":0.0025682,"rev_number":4401,"period_min":97.294482528474,"perigee_km":628.9044881189,"apogee_km":629.47348298893,"semimajor_km":7007.3259855539,"source":"CELESTRAK","updated_at":"2026-05-25T13:38:05.167830Z"}}